Weather History for Holesov, Czech Republic

Change the Weather History Date:

Wednesday, February 26, 2014

  Actual Average Record
Temperature  
Mean Temperature 46 °F -  
Max Temperature 53 °F - - ()
Min Temperature 38 °F - - ()
Degree Days  
Heating Degree Days 20    
Moisture  
Dew Point 35 °F    
Average Humidity 59    
Maximum Humidity 83    
Minimum Humidity 35    
Precipitation  
Precipitation 0.00 in - - ()
Sea Level Pressure  
Sea Level Pressure 30.11 in    
Wind  
Wind Speed 8 mph ()    
Max Wind Speed 18 mph    
Max Gust Speed -    
Visibility 9.1 miles    
Events      
T = Trace of Precipitation, MM = Missing Value Source: Averaged Metar Reports

Daily Weather History Graph

Daily Weather History Graph

Search for Another Location

Airport:

Trip Planner

Search our weather history database for the weather conditions in past years. The results will help you decide how hot, cold, wet, or windy it might be!

Date:

Astronomy

Feb. 26, 2014 Rise Set
Actual Time 6:38 AM CET 5:27 PM CET
Civil Twilight 6:06 AM CET 5:59 PM CET
Nautical Twilight 5:29 AM CET 6:36 PM CET
Astronomical Twilight 4:52 AM CET 7:13 PM CET
Moon 4:23 AM CET (2/26) 2:09 PM CET (2/26)
Length of Visible Light 11h 53m
Length of Day
10h 48m
Waning Crescent, 12% of the Moon is Illuminated
Feb 26
Waning Crescent
Mar 1
New
Mar 8
First Quarter
Mar 16
Full
Mar 24
Last Quarter

Hourly Weather History & Observations

Time (CET) Temp. Dew Point Humidity Pressure Visibility Wind Dir Wind Speed Gust Speed Precip Events Conditions
12:00 AM 44 °F 36 °F 63% 30.12 in 9 mi SE 6.7 mph - -   Overcast
1:00 AM 44 °F 36 °F 65% 30.12 in 7 mi ESE 6.7 mph - -   Partly Cloudy
2:00 AM 44 °F 37 °F 67% 30.11 in 6 mi ESE 11.2 mph - -   Overcast
3:00 AM 44 °F 37 °F 68% 30.10 in 6 mi SE 8.9 mph - -   Mostly Cloudy
4:00 AM 44 °F 37 °F 67% 30.10 in 6 mi South 6.7 mph - -   Partly Cloudy
5:00 AM 39 °F 33 °F 72% 30.11 in 5 mi SSE 4.5 mph - -   Mist
6:00 AM 40 °F 37 °F 83% 30.11 in 4 mi SSE 6.7 mph - -   Mist
7:00 AM 41 °F 37 °F 80% 30.12 in 5 mi SSE 6.7 mph - -   Mist
8:00 AM 44 °F 36 °F 66% 30.13 in 7 mi SE 8.9 mph - -   Mostly Cloudy
9:00 AM 46 °F 35 °F 56% 30.13 in 9 mi SSE 11.2 mph - -   Mostly Cloudy
10:00 AM 46 °F 35 °F 55% 30.14 in 9 mi SSE 11.2 mph - -   Mostly Cloudy
11:00 AM 49 °F 34 °F 44% 30.13 in 12 mi SSE 15.7 mph - -   Mostly Cloudy
12:00 PM 50 °F 33 °F 41% 30.11 in 12 mi SSE 15.7 mph - -   Mostly Cloudy
1:00 PM 51 °F 33 °F 37% 30.10 in 12 mi SSE 15.7 mph - -   Mostly Cloudy
2:00 PM 53 °F 33 °F 35% 30.09 in 12 mi South 17.9 mph - -   Mostly Cloudy
3:00 PM 52 °F 34 °F 39% 30.09 in 12 mi South 15.7 mph - -   Mostly Cloudy
4:00 PM 50 °F 35 °F 43% 30.09 in 12 mi South 11.2 mph - -   Mostly Cloudy
5:00 PM 48 °F 35 °F 49% 30.10 in 12 mi South 8.9 mph - -   Mostly Cloudy
6:00 PM 46 °F 35 °F 56% 30.10 in 12 mi SSE 4.5 mph - -   Mostly Cloudy
7:00 PM 46 °F 36 °F 57% 30.12 in 12 mi ESE 4.5 mph - -   Mostly Cloudy
8:00 PM 45 °F 36 °F 61% 30.12 in 12 mi SE 6.7 mph - -   Mostly Cloudy
9:00 PM 42 °F 34 °F 66% 30.13 in 12 mi SE 6.7 mph - -   Mostly Cloudy
10:00 PM 42 °F 36 °F 70% 30.13 in 8 mi SE 6.7 mph - -   Clear
11:00 PM 38 °F 33 °F 77% 30.13 in 6 mi SE 6.7 mph - -